Weather History for Manassas, VA

Change the Weather History Date:

Friday, October 11, 2013

  Actual Average Record
Temperature  
Mean Temperature 60 °F -  
Max Temperature 62 °F 67 °F 87 °F (2010)
Min Temperature 57 °F 43 °F 33 °F (2000)
Degree Days  
Heating Degree Days 6    
Growing Degree Days 10 (Base 50)    
Moisture  
Dew Point 58 °F    
Average Humidity 98    
Maximum Humidity 100    
Minimum Humidity 94    
Precipitation  
Precipitation 0.00 in - - ()
Sea Level Pressure  
Sea Level Pressure 29.97 in    
Wind  
Wind Speed 11 mph (North)    
Max Wind Speed 14 mph    
Max Gust Speed 20 mph    
Visibility 8 miles    
Events Rain    
Averages and records for this station are not official NWS values.
T = Trace of Precipitation, MM = Missing Value Source: NWS Daily Summary

Daily Weather History Graph

Daily Weather History Graph

Search for Another Location

Airport:

Trip Planner

Search our weather history database for the weather conditions in past years. The results will help you decide how hot, cold, wet, or windy it might be!

Date:

Astronomy

Oct. 11, 2013 Rise Set
Actual Time 7:15 AM EDT 6:37 PM EDT
Civil Twilight 6:48 AM EDT 7:03 PM EDT
Nautical Twilight 6:18 AM EDT 7:34 PM EDT
Astronomical Twilight 5:47 AM EDT 8:05 PM EDT
Moon 1:54 PM EDT (10/11) No Moon Set
Length of Visible Light 12h 14m
Length of Day
11h 21m
Waxing Crescent, 47% of the Moon is Illuminated
Oct 11
Waxing Crescent
Oct 11
First Quarter
Oct 18
Full
Oct 26
Last Quarter
Nov 3
New

Hourly Weather History & Observations

Time (EDT) Temp. Dew Point Humidity Pressure Visibility Wind Dir Wind Speed Gust Speed Precip Events Conditions
12:15 AM 57.2 °F 57.2 °F 100% 29.99 in 7.0 mi North 11.5 mph 16.1 mph N/A   Overcast
12:35 AM 57.2 °F 55.4 °F 94% 29.98 in 5.0 mi North 10.4 mph 16.1 mph N/A   Overcast
12:55 AM 57.2 °F 55.4 °F 94% 29.98 in 9.0 mi North 13.8 mph - N/A   Overcast
1:15 AM 57.2 °F 55.4 °F 94% 29.97 in 10.0 mi North 11.5 mph - N/A   Overcast
1:35 AM 57.2 °F 55.4 °F 94% 29.97 in 10.0 mi North 10.4 mph 16.1 mph N/A   Overcast
1:55 AM 57.2 °F 55.4 °F 94% 29.97 in 10.0 mi North 12.7 mph - N/A   Overcast
2:15 AM 57.2 °F 57.2 °F 100% 29.97 in 10.0 mi North 10.4 mph - N/A   Overcast
2:35 AM 57.2 °F 57.2 °F 100% 29.97 in 10.0 mi North 9.2 mph - N/A   Overcast
2:55 AM 57.2 °F 57.2 °F 100% 29.96 in 10.0 mi North 11.5 mph - N/A   Overcast
3:15 AM 57.2 °F 57.2 °F 100% 29.96 in 10.0 mi NNW 12.7 mph 19.6 mph N/A   Overcast
3:35 AM 57.2 °F 57.2 °F 100% 29.95 in 7.0 mi North 12.7 mph - N/A   Overcast
3:55 AM 57.2 °F 57.2 °F 100% 29.95 in 9.0 mi North 12.7 mph 17.3 mph N/A   Overcast
4:15 AM 57.2 °F 57.2 °F 100% 29.95 in 8.0 mi North 12.7 mph 16.1 mph N/A   Overcast
4:35 AM 57.2 °F 57.2 °F 100% 29.95 in 9.0 mi NNW 9.2 mph - N/A   Unknown
4:55 AM 57.2 °F 55.4 °F 94% 29.96 in 8.0 mi NNW 11.5 mph - N/A   Overcast
5:15 AM 57.2 °F 57.2 °F 100% 29.96 in 6.0 mi NNW 9.2 mph - N/A   Overcast
5:35 AM 57.2 °F 57.2 °F 100% 29.96 in 9.0 mi NNW 9.2 mph - N/A   Overcast
5:55 AM 57.2 °F 57.2 °F 100% 29.96 in 4.0 mi NNW 10.4 mph - N/A   Overcast
6:15 AM 57.2 °F 57.2 °F 100% 29.96 in 4.0 mi NNW 9.2 mph 17.3 mph N/A   Overcast
6:35 AM 57.2 °F 57.2 °F 100% 29.96 in 3.0 mi NNW 11.5 mph - N/A   Overcast
6:55 AM 57.2 °F 57.2 °F 100% 29.96 in 5.0 mi North 10.4 mph - N/A   Overcast
7:15 AM 57.2 °F 57.2 °F 100% 29.96 in 5.0 mi North 11.5 mph - N/A   Overcast
7:35 AM 57.2 °F 57.2 °F 100% 29.96 in 5.0 mi North 11.5 mph 17.3 mph N/A   Overcast
7:55 AM 57.2 °F 57.2 °F 100% 29.97 in 10.0 mi North 9.2 mph 16.1 mph N/A   Overcast
8:50 AM 57.2 °F 55.4 °F 94% 29.98 in 2.0 mi North 10.4 mph - N/A Rain Rain
9:50 AM 57.2 °F 57.2 °F 100% 29.98 in 3.0 mi North 10.4 mph - N/A Rain Light Rain
12:55 PM 60.8 °F 60.8 °F 100% 29.97 in 5.0 mi North 10.4 mph - N/A   Overcast
1:55 PM 60.8 °F 60.8 °F 100% 29.96 in 5.0 mi North 11.5 mph 16.1 mph N/A   Overcast
2:55 PM 60.8 °F 60.8 °F 100% 29.95 in 4.0 mi North 10.4 mph - N/A Rain Rain
3:45 PM 60.8 °F 59.0 °F 94% 29.95 in 5.0 mi North 13.8 mph 18.4 mph N/A   Overcast
4:45 PM 60.8 °F 59.0 °F 94% 29.96 in 1.5 mi North 9.2 mph - N/A   Overcast
5:50 PM 60.8 °F 59.0 °F 94% 29.96 in 9.0 mi North 9.2 mph - N/A   Overcast
6:50 PM 60.8 °F 59.0 °F 94% 29.97 in 10.0 mi North 8.1 mph - N/A   Overcast
9:35 PM 62.6 °F 62.6 °F 100% 30.00 in 10.0 mi North 8.1 mph - N/A   Overcast
9:55 PM 62.6 °F 62.6 °F 100% 29.99 in 10.0 mi North 10.4 mph - N/A   Overcast
10:15 PM 62.6 °F 62.6 °F 100% 29.99 in 10.0 mi North 9.2 mph - N/A   Overcast
10:35 PM 62.6 °F 62.6 °F 100% 29.99 in 10.0 mi North 6.9 mph - N/A   Overcast
10:55 PM 62.6 °F 62.6 °F 100% 29.99 in 10.0 mi North 8.1 mph - N/A   Overcast
11:15 PM 62.6 °F 62.6 °F 100% 29.99 in 10.0 mi North 9.2 mph - N/A   Overcast
11:35 PM 62.6 °F 60.8 °F 94% 29.99 in 10.0 mi North 8.1 mph - N/A   Overcast
11:55 PM 62.6 °F 60.8 °F 94% 29.99 in 10.0 mi North 8.1 mph - N/A   Overcast